Jennings, LA

9:33 PM CST on November 21, 2019 (GMT -0600)
Jennings

Weather History for K3R7 - October, 2019

Change the Weather History Date:

Saturday, October 12, 2019

  Actual Average (WUND) Record (WUND)
Temperature  
Mean Temperature 63 °F -  
Max Temperature 73 °F - - (-1)
Min Temperature 54 °F - - (-1)
Degree Days  
Heating Degree Days 2    
Growing Degree Days 13 (Base 50)    
Moisture  
Dew Point 45 °F    
Average Humidity 54    
Maximum Humidity 82    
Minimum Humidity 36    
Precipitation  
Precipitation 0.00 in - - ()
Sea Level Pressure  
Sea Level Pressure 30.10 in    
Wind  
Wind Speed 11 mph (NNE)    
Max Wind Speed 20 mph    
Max Gust Speed 25 mph    
Visibility 10 miles    
Events      
Averages and records for this station are not official NWS values.
T = Trace of Precipitation, MM = Missing Value Source: NWS Daily Summary

Daily Weather History Graph

Daily Weather History Graph

Search for Another Location

Airport or City:

Astronomy

Oct. 12, 2019 Rise Set
Actual Time 7:10 AM CDT 6:43 PM CDT
Civil Twilight 6:46 AM CDT 7:07 PM CDT
Nautical Twilight 6:18 AM CDT 7:35 PM CDT
Astronomical Twilight 5:50 AM CDT 8:02 PM CDT
Moon 6:30 PM CDT (10/12) 5:59 AM CDT (10/12)
Length of Visible Light 12h 20m
Length of Day
11h 32m
Waxing Gibbous, 99% of the Moon is Illuminated
Oct 12
Waxing Gibbous
Oct 13
Full
Oct 21
Last Quarter
Oct 27
New
Nov 4
First Quarter

Hourly Weather History & Observations

Time (CDT) Temp. Dew Point Humidity Pressure Visibility Wind Dir Wind Speed Gust Speed Precip Events Conditions
12:15 AM 56.5 °F 51.1 °F 82% 30.12 in 10.0 mi North 12.7 mph 18.4 mph N/A   Clear
12:55 AM 55.9 °F 49.6 °F 79% 30.12 in 10.0 mi North 10.4 mph 18.4 mph N/A   Clear
1:15 AM 55.8 °F 49.3 °F 79% 30.12 in 10.0 mi North 10.4 mph - N/A   Clear
1:35 AM 55.6 °F 49.1 °F 79% 30.12 in 10.0 mi North 13.8 mph 17.3 mph N/A   Clear
1:55 AM 55.4 °F 48.2 °F 77% 30.12 in 10.0 mi North 12.7 mph 16.1 mph N/A   Clear
2:15 AM 55.0 °F 47.5 °F 76% 30.12 in 10.0 mi North 11.5 mph 17.3 mph N/A   Clear
2:35 AM 54.7 °F 46.8 °F 75% 30.11 in 10.0 mi North 10.4 mph 16.1 mph N/A   Clear
2:55 AM 54.7 °F 45.9 °F 72% 30.11 in 10.0 mi North 13.8 mph 19.6 mph N/A   Clear
3:15 AM 54.7 °F 44.8 °F 69% 30.11 in 10.0 mi North 12.7 mph 19.6 mph N/A   Clear
3:35 AM 54.9 °F 43.7 °F 66% 30.11 in 10.0 mi North 11.5 mph 17.3 mph N/A   Mostly Cloudy
3:55 AM 55.8 °F 43.0 °F 62% 30.11 in 10.0 mi North 11.5 mph 18.4 mph N/A   Overcast
4:15 AM 55.9 °F 42.3 °F 60% 30.11 in 10.0 mi North 16.1 mph 21.9 mph N/A   Overcast
4:35 AM 56.1 °F 42.1 °F 59% 30.10 in 10.0 mi North 15.0 mph 20.7 mph N/A   Overcast
4:55 AM 56.1 °F 41.9 °F 59% 30.11 in 10.0 mi North 11.5 mph 25.3 mph N/A   Overcast
5:15 AM 56.3 °F 41.7 °F 58% 30.11 in 10.0 mi North 16.1 mph 25.3 mph N/A   Overcast
5:55 AM 56.1 °F 41.0 °F 57% 30.12 in 10.0 mi North 16.1 mph 23.0 mph N/A   Overcast
6:15 AM 56.3 °F 40.8 °F 56% 30.12 in 10.0 mi North 12.7 mph 21.9 mph N/A   Overcast
6:35 AM 56.3 °F 41.0 °F 57% 30.12 in 10.0 mi NNE 15.0 mph 20.7 mph N/A   Overcast
6:55 AM 55.9 °F 41.4 °F 58% 30.13 in 10.0 mi NNE 19.6 mph 24.2 mph N/A   Overcast
7:15 AM 56.1 °F 41.7 °F 58% 30.14 in 10.0 mi NNE 12.7 mph 20.7 mph N/A   Overcast
7:35 AM 55.8 °F 42.1 °F 60% 30.14 in 10.0 mi North 17.3 mph 23.0 mph N/A   Overcast
7:55 AM 55.9 °F 42.3 °F 60% 30.14 in 10.0 mi NNE 18.4 mph 23.0 mph N/A   Overcast
8:15 AM 55.9 °F 42.6 °F 61% 30.14 in 10.0 mi NNE 16.1 mph 23.0 mph N/A   Overcast
8:35 AM 57.4 °F 43.2 °F 59% 30.14 in 10.0 mi NNE 15.0 mph 23.0 mph N/A   Mostly Cloudy
8:55 AM 58.3 °F 43.2 °F 57% 30.14 in 10.0 mi NNE 16.1 mph - N/A   Mostly Cloudy
9:35 AM 60.1 °F 43.5 °F 54% 30.15 in 10.0 mi NNE 15.0 mph 20.7 mph N/A   Mostly Cloudy
9:55 AM 59.4 °F 43.0 °F 55% 30.15 in 10.0 mi NNE 15.0 mph - N/A   Mostly Cloudy
10:15 AM 61.9 °F 43.9 °F 52% 30.16 in 10.0 mi NNE 12.7 mph - N/A   Scattered Clouds
10:35 AM 61.9 °F 43.9 °F 52% 30.16 in 10.0 mi NNE 13.8 mph 20.7 mph N/A   Clear
10:55 AM 63.5 °F 44.4 °F 50% 30.15 in 10.0 mi NE 10.4 mph 20.7 mph N/A   Clear
11:15 AM 64.4 °F 45.1 °F 50% 30.15 in 10.0 mi North 12.7 mph - N/A   Clear
11:35 AM 65.1 °F 45.0 °F 48% 30.14 in 10.0 mi NNE 13.8 mph 18.4 mph N/A   Clear
11:55 AM 65.5 °F 45.1 °F 48% 30.13 in 10.0 mi North 12.7 mph - N/A   Clear
12:15 PM 65.5 °F 45.3 °F 48% 30.14 in 10.0 mi North 13.8 mph 20.7 mph N/A   Clear
12:35 PM 66.9 °F 45.5 °F 46% 30.13 in 10.0 mi NNE 11.5 mph - N/A   Clear
12:55 PM 68.2 °F 45.3 °F 44% 30.12 in 10.0 mi North 11.5 mph 17.3 mph N/A   Clear
1:15 PM 68.5 °F 45.3 °F 43% 30.11 in 10.0 mi NE 10.4 mph - N/A   Clear
1:35 PM 69.6 °F 45.1 °F 41% 30.11 in 10.0 mi NNE 8.1 mph 16.1 mph N/A   Clear
1:55 PM 70.3 °F 45.7 °F 41% 30.09 in 10.0 mi NNE 11.5 mph - N/A   Clear
2:15 PM 71.1 °F 45.7 °F 40% 30.08 in 10.0 mi NNE 10.4 mph - N/A   Clear
2:35 PM 71.8 °F 45.7 °F 39% 30.08 in 10.0 mi North 9.2 mph - N/A   Clear
2:55 PM 72.5 °F 45.9 °F 39% 30.07 in 10.0 mi North 10.4 mph - N/A   Clear
3:35 PM 72.7 °F 45.1 °F 37% 30.06 in 10.0 mi North 11.5 mph 17.3 mph N/A   Clear
3:55 PM 72.0 °F 44.1 °F 37% 30.06 in 10.0 mi North 9.2 mph - N/A   Clear
4:15 PM 72.1 °F 43.9 °F 36% 30.06 in 10.0 mi NNE 9.2 mph - N/A   Clear
4:35 PM 72.0 °F 43.7 °F 36% 30.06 in 10.0 mi North 6.9 mph - N/A   Clear
4:55 PM 71.8 °F 43.9 °F 37% 30.06 in 10.0 mi NE 8.1 mph - N/A   Clear
5:15 PM 72.1 °F 44.4 °F 37% 30.05 in 10.0 mi NNE 8.1 mph - N/A   Clear
5:35 PM 71.6 °F 43.7 °F 37% 30.06 in 10.0 mi NNE 10.4 mph - N/A   Clear
6:15 PM 70.0 °F 42.8 °F 37% 30.06 in 10.0 mi NE 8.1 mph - N/A   Clear
6:35 PM 68.7 °F 42.8 °F 39% 30.06 in 10.0 mi NE 6.9 mph - N/A   Clear
6:55 PM 67.1 °F 43.7 °F 43% 30.06 in 10.0 mi NNE 5.8 mph - N/A   Clear
7:35 PM 65.3 °F 43.9 °F 46% 30.05 in 10.0 mi NE 5.8 mph - N/A   Clear
7:55 PM 63.9 °F 44.4 °F 49% 30.06 in 10.0 mi NE 3.5 mph - N/A   Clear
8:15 PM 63.5 °F 43.7 °F 48% 30.05 in 10.0 mi NE 5.8 mph - N/A   Clear
8:35 PM 63.7 °F 42.6 °F 46% 30.05 in 10.0 mi NE 5.8 mph - N/A   Clear
8:55 PM 62.4 °F 43.7 °F 50% 30.06 in 10.0 mi NNE 3.5 mph - N/A   Clear
9:15 PM 61.0 °F 48.0 °F 62% 30.05 in 10.0 mi North 3.5 mph - N/A   Clear
9:35 PM 60.4 °F 45.7 °F 58% 30.05 in 10.0 mi North 4.6 mph - N/A   Clear
9:55 PM 60.8 °F 44.8 °F 56% 30.05 in 10.0 mi NNE 4.6 mph - N/A   Clear
10:15 PM 59.9 °F 46.0 °F 60% 30.05 in 10.0 mi Calm Calm - N/A   Clear
10:35 PM 59.9 °F 45.7 °F 59% 30.05 in 10.0 mi NE 4.6 mph - N/A   Clear
10:55 PM 59.2 °F 46.2 °F 62% 30.05 in 10.0 mi ENE 3.5 mph - N/A   Clear
11:15 PM 58.6 °F 46.4 °F 64% 30.04 in 10.0 mi NE 3.5 mph - N/A   Clear
11:35 PM 59.5 °F 45.3 °F 59% 30.04 in 10.0 mi Calm Calm - N/A   Clear
11:55 PM 59.4 °F 45.3 °F 60% 30.04 in 10.0 mi Calm Calm - N/A   Clear